Weather History for Milton, FL

Change the Weather History Date:

Saturday, November 10, 2012

  Actual Average (KNSE) Record (KNSE)
Temperature  
Mean Temperature 58 °F -  
Max Temperature 73 °F 68 °F 80 °F (2010)
Min Temperature 43 °F 49 °F 37 °F (2008)
Degree Days  
Heating Degree Days 7    
Growing Degree Days 8 (Base 50)    
Moisture  
Dew Point 48 °F    
Average Humidity 70    
Maximum Humidity 89    
Minimum Humidity 42    
Precipitation  
Precipitation 0.00 in - - ()
Sea Level Pressure  
Sea Level Pressure 30.23 in    
Wind  
Wind Speed 5 mph (ESE)    
Max Wind Speed 10 mph    
Max Gust Speed -    
Visibility 10 miles    
Events      
Averages and records for this station are not official NWS values.
T = Trace of Precipitation, MM = Missing Value Source: NWS Daily Summary

Daily Weather History Graph

Daily Weather History Graph

Search for Another Location

Airport:

Trip Planner

Search our weather history database for the weather conditions in past years. The results will help you decide how hot, cold, wet, or windy it might be!

Date:

Astronomy

Nov. 10, 2012 Rise Set
Actual Time 6:10 AM CST 4:53 PM CST
Civil Twilight 5:45 AM CST 5:18 PM CST
Nautical Twilight 5:16 AM CST 5:47 PM CST
Astronomical Twilight 4:47 AM CST 6:15 PM CST
Moon 2:28 AM CST (11/10) 2:28 PM CST (11/10)
Length of Visible Light 11h 33m
Length of Day
10h 42m
Waning Crescent, 14% of the Moon is Illuminated
Nov 10
Waning Crescent
Nov 13
New
Nov 20
First Quarter
Nov 28
Full
Dec 6
Last Quarter

Hourly Weather History & Observations

Time (CST) Temp. Windchill Dew Point Humidity Pressure Visibility Wind Dir Wind Speed Gust Speed Precip Events Conditions
12:56 AM 43.0 °F 41.3 °F 39.9 °F 89% 30.21 in 10.0 mi NE 3.5 mph - N/A   Clear
1:56 AM 43.0 °F 41.3 °F 39.9 °F 89% 30.21 in 10.0 mi NE 3.5 mph - N/A   Clear
2:56 AM 46.0 °F 43.1 °F 42.1 °F 86% 30.21 in 10.0 mi NE 5.8 mph - N/A   Clear
3:56 AM 48.9 °F - 43.0 °F 80% 30.21 in 10.0 mi ENE 4.6 mph - N/A   Clear
4:56 AM 48.9 °F - 44.1 °F 83% 30.23 in 10.0 mi ENE 3.5 mph - N/A   Clear
5:56 AM 48.9 °F - 44.1 °F 83% 30.25 in 10.0 mi ENE 4.6 mph - N/A   Clear
6:56 AM 50.0 °F - 45.0 °F 83% 30.27 in 10.0 mi Calm Calm - N/A   Clear
7:56 AM 55.0 °F - 48.0 °F 77% 30.27 in 10.0 mi East 3.5 mph - N/A   Clear
8:56 AM 62.1 °F - 48.9 °F 62% 30.28 in 10.0 mi ESE 6.9 mph - N/A   Clear
9:56 AM 68.0 °F - 46.9 °F 47% 30.29 in 10.0 mi East 6.9 mph - N/A   Clear
10:56 AM 71.1 °F - 48.0 °F 44% 30.27 in 10.0 mi SE 9.2 mph - N/A   Clear
11:56 AM 73.0 °F - 48.9 °F 42% 30.25 in 10.0 mi SSE 10.4 mph - N/A   Clear
12:56 PM 73.0 °F - 48.9 °F 42% 30.22 in 10.0 mi SSE 10.4 mph - N/A   Clear
1:56 PM 71.1 °F - 48.9 °F 45% 30.20 in 10.0 mi South 6.9 mph - N/A   Mostly Cloudy
2:56 PM 72.0 °F - 51.1 °F 48% 30.20 in 10.0 mi SSW 8.1 mph - N/A   Clear
3:56 PM 70.0 °F - 52.0 °F 53% 30.21 in 10.0 mi South 5.8 mph - N/A   Partly Cloudy
4:56 PM 64.0 °F - 53.1 °F 67% 30.22 in 10.0 mi SSE 4.6 mph - N/A   Clear
5:56 PM 62.1 °F - 54.0 °F 75% 30.23 in 10.0 mi ESE 5.8 mph - N/A   Clear
6:56 PM 60.1 °F - 54.0 °F 80% 30.23 in 10.0 mi ESE 5.8 mph - N/A   Clear
7:56 PM 60.1 °F - 54.0 °F 80% 30.24 in 10.0 mi ESE 3.5 mph - N/A   Clear
8:56 PM 59.0 °F - 53.1 °F 81% 30.25 in 10.0 mi SE 3.5 mph - N/A   Clear
9:56 PM 57.9 °F - 52.0 °F 81% 30.23 in 10.0 mi ESE 6.9 mph - N/A   Clear
10:56 PM 57.0 °F - 51.1 °F 81% 30.22 in 10.0 mi ESE 6.9 mph - N/A   Clear
11:56 PM 55.0 °F - 50.0 °F 83% 30.22 in 10.0 mi East 3.5 mph - N/A   Clear